Regional Weather Roundup
Issued by NWS Sterling, VA

Home | Current Version | Previous Version | Graphics & Text | Print | Product List | Glossary On
Versions: 1 2 3 4 5 6 7 8 9 10 11 12 13 14 15 16 17 18 19 20 21 22 23 24 25 26 27
000
ASUS41 KLWX 280810
RWRLWX

REGIONAL WEATHER ROUNDUP
NATIONAL WEATHER SERVICE BALTIMORE MD/WASHINGTON DC
400 AM EDT SAT MAY 28 2016

Note: "FAIR" indicates few or no clouds below 12,000 feet
with no significant weather and/or obstructions to visibility.
 TC=TEMPERATURE CELSIUS

 * =Non NWS site. Station does not report precipitation (e.g. rain,
    snow, etc.), thunder, or fog.

DCZ001-MDZ009-015-VAZ040>042-051-053>054-280900-
WASHINGTON METRO

CITY           SKY/WX    TMP DP  RH WIND       PRES   REMARKS
WASHINGTON NAT FAIR      72  66  81 S10       30.10R
DULLES         FAIR      72  65  78 S7        30.09R
ANDREWS AFB    CLEAR     70  62  75 S10       30.09S
FT BELVOIR     FAIR      69  64  84 CALM      30.10R
QUANTICO       FAIR      73  65  75 SW8       30.11R
COLLEGE PARK*  FAIR      73  63  68 SW5       30.09R
LEESBURG*      FAIR      70  70 100 SW6       30.10S
MANASSAS*      FAIR      72  64  78 S5        30.10R

$$

MDZ006>007-011-014-280900-
BALTIMORE METRO

CITY           SKY/WX    TMP DP  RH WIND       PRES   REMARKS
BWI AIRPORT    PTCLDY    69  64  84 CALM      30.09R
MD SCIENCE CTR   N/A     72  64  76 MISG      30.10R
MARTIN STATE   CLEAR     68  68 100 E5        30.11R
ANNAPOLIS      CLEAR     69  64  84 S5        30.09S
FORT MEADE*    CLEAR     63  63 100 CALM      30.11S

$$

MDZ012-015-019>023-280900-
MARYLAND EASTERN SHORE

CITY           SKY/WX    TMP DP  RH WIND       PRES   REMARKS
OCEAN CITY     CLEAR     69  62  78 SW10      30.14S
SALISBURY      CLEAR     65  61  87 S6        30.14R
BAY BRIDGE AP* CLEAR     72  63  73 S7        30.10R
CAMBRIDGE*       N/A     68  63  83 S3        30.12S
EASTON*        CLEAR     72  66  82 SW8       30.15R

$$

MDZ017>025-280900-
SOUTHERN MARYLAND

CITY           SKY/WX    TMP DP  RH WIND       PRES   REMARKS
PATUXENT RIVER CLEAR     70  58  65 SW7       30.12R
ST INIGOES     CLEAR     70  60  70 S8        30.12R
LEONARDTOWN*   CLEAR     68  57  68 S6        30.14R

$$

MDZ003>005-280900-
NORTH CENTRAL MARYLAND

CITY           SKY/WX    TMP DP  RH WIND       PRES   REMARKS
FREDERICK*     CLEAR     68  68 100 CALM      30.11R
HAGERSTOWN APT PTCLDY    70  65  84 SE3       30.09R
WESTMINSTER*   CLEAR     70  66  88 SE3       30.10S

$$

MDZ501>502-280900-
WESTERN MARYLAND

CITY           SKY/WX    TMP DP  RH WIND       PRES   REMARKS
OAKLAND*       PTCLDY    64  57  77 SW7       30.19S
CUMBERLAND*    CLOUDY    68  68 100 CALM      30.14S

$$

VAZ025>031-280900-
SHENANDOAH VALLEY

CITY           SKY/WX    TMP DP  RH WIND       PRES   REMARKS
WINCHESTER*    FAIR      66  63  88 SW3       30.10R
FRONT ROYAL*   FAIR      64  64 100 S5        30.09S
LURAY*         FAIR      64  64 100 CALM      30.12S
NEW MARKET*    FAIR      62  62 100 CALM      30.11S
STAUNTON*      FOG       62  62 100 CALM      30.15F VSB 1/2
WAYNESBORO*    FAIR      65  63  94 CALM      30.15S

$$

WVZ021-048>050-054>055-280900-
EASTERN WEST VIRGINIA PANHANDLE

CITY           SKY/WX    TMP DP  RH WIND       PRES   REMARKS
MARTINSBURG    FAIR      66  64  93 S5        30.08S
PETERSBURG*    FOG       65  65 100 CALM      30.12S VSB 1/4

$$

VAZ036>039-050-280900-
CENTRAL FOOTHILLS

CITY           SKY/WX    TMP DP  RH WIND       PRES   REMARKS
CHARLOTTESVILL FAIR      69  64  84 S6        30.11S
CULPEPER*      FAIR      72  66  82 S3        30.11R
ORANGE*        FAIR      68  66  94 CALM      30.13S
GORDONSVILLE*  FAIR      67  65  95 SW6       30.11S
WARRENTON*     FAIR      72  60  67 S5        30.10S

$$

VAZ055>057-280900-
NORTH AND CENTRAL PIEDMONT

CITY           SKY/WX    TMP DP  RH WIND       PRES   REMARKS
FREDERICKSBRG* FAIR      71  62  74 S3        30.11R
STAFFORD*      FAIR      70  60  70 S5        30.15S

$$

NCZ024-NYZ072-PAZ021-071-VAZ022-071-280900-
OTHER REGIONAL OBSERVATIONS

CITY           SKY/WX    TMP DP  RH WIND       PRES   REMARKS
NEW YORK CITY  PTCLDY    72  59  63 VRB7      30.11S
PHILADELPHIA   PTCLDY    69  58  67 S6        30.11S
PITTSBURGH     PTCLDY    69  62  78 CALM      30.08R
ROANOKE        FAIR      67  64  90 CALM      30.16R
RICHMOND       FAIR      65  60  84 S5        30.14R
RALEIGH        CLEAR     62  58  86 CALM      30.15S

$$

ANZ530>537-280900-
MARINE OBSERVATIONS

STATION/POSITION TIME  TEMP    WIND        PRES
                       AIR SEA DIR/SP/G
                 (UTC) (F)     (DEG/KT/KT) (MB)
THOMAS PT LIGHT  0800   69 66  180/ 13/ 14 1020.3R
BALT KEY BRIDGE  0700   71     180/  7/  8 1018.5F
COVE POINT       0700   68     180/  6/  7 1020.2F
LEWISETTA        0700   71 68  230/ 10/ 12 1019.4F
SOLOMONS ISLAND  0700   72 67  190/  6/  9   N/A
PINEY POINT      0700          210/  8/  9   N/A

$$





USA.gov is the U.S. government's official web portal to all federal, state and local government web resources and services.